Flag for Brazil Weather past 2 weeks in Manaus, Amazonas, Brazil

Now
79 °F

Passing clouds.


Feels Like: 82 °F
Forecast: 76 / 90 °F
Wind: 3 mph from East

Location: Manaus Aeroporto

Current Time: Jul 23, 2014 at 8:49:07 PM

Latest Report: Jul 23, 2014 at 8:00 PM


Visibility: N/A

Pressure: 29.89 "Hg

Humidity: 84%

Dew point: 73 °F

Location of ManausLocation

Historic Weather in Manaus — Graph

°F

Manaus temperature yesterday

Maximum temperature yesterday: 88 °F (at 11:00 AM)
Minimum temperature yesterday: 75 °F (at 5:00 AM)
Average temperature yesterday: 79 °F

Past Weeks' High & Low Weather Summary

 TemperatureHumidityPressure
High91 °F (Jul 17, 2:00 PM)94% (Jul 9, 11:00 AM)30.04 "Hg (Jul 9, 11:00 AM)
Low72 °F (Jul 13, 6:00 AM)52% (Jul 20, 3:00 PM)29.83 "Hg (Jul 21, 4:00 PM)
Average80 °F81%29.95 "Hg
* Reported Jul 8 7:00 PM — Jul 23 7:00 PM, Manaus, Weather by CustomWeather, © 2014

Note: Actual official high and low records may vary slightly from our data, if they occured in-between our weather recording intervals... More about our weather records

Advertising

Manaus weather history for previous 24 hours

 ConditionsComfort  
Time TempWeatherWind HumidityBarometerVisibility
7:00 PM
Jul 23
79 °FPassing clouds.5 mph84%29.86 "HgN/A
6:00 PM79 °FPassing clouds.5 mph84%29.86 "HgN/A
5:00 PM81 °FPassing clouds.6 mph79%29.86 "HgN/A
4:00 PM81 °FScattered showers. Scattered clouds.6 mph79%N/AN/A
3:00 PM84 °FScattered showers. Partly sunny.12 mph70%29.86 "HgN/A
2:00 PM88 °FScattered clouds.6 mph62%29.89 "HgN/A
1:00 PM88 °FScattered clouds.6 mph62%29.92 "HgN/A
12:00 PM86 °FScattered clouds.6 mph66%29.95 "HgN/A
11:00 AM86 °FScattered clouds.6 mph66%29.98 "HgN/A
10:00 AM84 °FPassing clouds.7 mph70%29.98 "HgN/A
9:00 AM82 °FSunny.6 mph74%29.98 "Hg10 mi
8:00 AM81 °FSunny.5 mph79%29.98 "Hg10 mi
7:00 AM77 °FSunny.5 mph83%29.95 "Hg10 mi
6:00 AM73 °FClear.5 mph94%29.92 "Hg10 mi
5:00 AM73 °FClear.5 mph94%29.89 "Hg10 mi
1:00 AM75 °FClear.2 mph89%29.92 "Hg10 mi
12:00 AM73 °FClear.2 mph94%29.92 "Hg10 mi
11:00 PM
Jul 22
75 °FClear.2 mph89%29.95 "Hg10 mi
10:00 PM77 °FClear.5 mph83%29.92 "Hg10 mi
9:00 PM75 °FClear.5 mph89%29.92 "Hg10 mi
8:00 PM75 °FClear.3 mph89%29.92 "Hg10 mi
Weather by CustomWeather, © 2014

See weather overviewHow to use our weather pages